Lapse_Rate
5.0 6.5 6.5 6.5 6.5 6.5 6.5 6.5 6.5 6.5 6.5 6.5 6.5 6.5 6.5 4.7 5.2 3.9 3.0 3.4 4.3 4.8 5.1 5.1 4.6 4.5 4.2 4.3 3.8 3.8 4.1 4.0 3.6 3.1 2.7 2.4 2.4 2.4 2.9 4.8 5.8 5.9 5.7 5.7
6.5 6.5 6.5 6.5 6.5 6.5 6.5 6.5 6.5 6.5 6.5 6.5 6.5 6.5 6.5 5.6 5.4 4.0 3.1 3.1 4.3 5.0 4.8 4.9 4.7 4.1 3.5 3.5 3.5 3.9 4.3 4.1 4.1 3.5 3.4 2.9 2.5 2.7 3.6 4.7 5.0 5.6 5.5 5.1
6.5 6.5 6.4 6.5 6.5 6.5 6.5 6.5 6.5 6.5 6.5 6.5 6.5 6.5 6.5 6.5 6.1 4.3 3.9 3.6 4.7 4.6 4.4 4.9 5.0 4.6 3.6 3.6 3.3 4.3 4.3 4.2 4.4 3.9 3.5 3.2 2.6 2.7 2.9 4.2 4.4 5.3 4.9 5.0
6.5 6.4 6.5 6.5 6.5 6.5 6.5 6.5 6.5 6.5 6.5 6.5 6.5 6.5 6.5 6.5 6.5 5.9 4.4 3.7 4.1 4.5 4.5 4.8 5.3 5.3 4.5 4.2 3.7 4.0 4.1 4.3 5.1 4.1 3.3 3.1 3.1 3.2 3.5 3.4 3.9 4.4 5.0 4.8
6.5 6.5 6.5 6.5 6.5 6.5 6.5 6.5 6.5 6.5 6.5 6.5 6.5 6.5 6.5 6.5 6.5 6.5 4.4 2.9 3.5 3.6 3.8 4.7 5.4 5.8 5.3 4.2 3.8 3.6 3.9 4.4 4.2 3.8 3.7 3.0 3.1 2.9 2.9 3.2 3.2 4.0 4.7 4.9
6.5 6.2 6.5 6.5 6.5 6.5 6.5 6.5 6.5 6.5 6.5 6.5 6.5 6.5 6.5 6.5 6.5 6.5 5.3 3.3 3.3 3.3 3.8 4.8 5.6 5.4 4.6 4.1 3.8 3.8 3.8 4.5 4.1 3.6 3.7 3.4 3.2 3.0 3.1 3.6 3.9 4.0 4.2 4.4
6.5 6.5 6.5 6.4 6.5 6.5 6.5 6.5 6.5 6.5 6.5 6.5 6.5 6.5 6.5 6.5 6.5 6.0 5.0 2.8 2.7 3.3 3.7 4.5 5.7 4.6 4.6 4.5 3.9 4.4 3.7 4.3 3.9 3.5 3.9 3.6 3.6 3.3 3.5 3.6 3.5 3.6 4.4 4.5
6.5 6.5 6.5 6.5 6.5 6.5 6.5 6.5 6.5 6.5 6.5 6.5 6.5 6.5 6.5 6.5 5.3 5.3 3.6 2.5 3.0 3.6 3.6 4.6 5.7 4.4 4.3 4.7 4.1 3.6 3.7 3.9 3.8 3.7 4.0 3.6 3.4 3.1 3.4 3.4 3.4 3.6 4.0 4.1
6.5 6.5 6.5 6.5 6.5 6.5 6.5 6.5 6.5 6.5 6.5 6.5 6.5 6.5 6.5 6.5 6.5 5.4 4.1 3.3 3.1 3.5 3.7 4.8 4.8 4.0 3.9 3.8 3.6 3.3 3.5 3.6 3.7 3.5 3.6 3.5 3.0 3.2 3.1 3.1 3.5 3.5 4.1 5.7
6.5 6.5 6.5 6.5 6.4 6.3 6.5 6.5 6.5 6.5 6.5 6.5 6.5 6.5 6.5 6.5 6.5 6.6 5.6 3.6 2.9 3.6 3.9 3.8 3.7 4.0 3.5 3.6 3.1 3.2 3.0 3.2 3.4 3.4 3.2 3.7 2.7 3.1 2.9 3.0 3.3 3.4 3.7 4.2
6.5 6.5 6.5 6.5 6.5 6.5 6.5 6.5 6.5 6.5 6.5 6.5 6.5 6.5 6.5 6.5 6.5 6.5 4.3 2.7 2.3 2.8 3.3 3.0 3.2 3.3 3.1 3.1 2.8 2.7 2.8 2.8 3.0 2.8 2.8 2.6 2.4 2.6 2.6 3.1 3.2 3.5 3.7 3.6
6.5 6.5 6.5 6.5 6.5 6.5 6.5 6.5 6.5 6.5 6.5 6.5 6.5 6.5 6.5 6.5 5.4 3.7 2.9 2.2 1.9 2.8 2.8 2.5 2.8 2.7 2.8 2.8 2.4 2.1 2.2 2.5 2.6 2.6 2.4 2.4 2.2 2.1 2.1 2.6 3.2 3.4 3.6 4.0
6.5 6.5 6.5 6.5 6.5 6.5 6.5 6.5 6.5 6.5 6.5 6.5 6.5 6.5 6.5 6.0 5.7 3.6 2.5 1.7 2.1 2.7 2.5 2.2 2.1 2.1 2.3 2.4 2.2 2.0 2.0 2.1 2.0 2.2 2.1 2.0 1.8 1.9 2.0 2.4 2.9 3.3 3.4 3.6
5.6 6.5 6.5 6.5 6.5 6.5 6.5 6.5 6.5 6.5 6.5 6.5 6.5 6.5 6.5 6.5 6.5 4.5 2.8 1.8 1.4 2.3 2.4 1.6 1.6 1.2 1.4 1.9 1.9 2.1 2.2 1.9 1.8 2.0 2.0 1.9 1.7 2.1 2.2 2.6 3.0 3.0 3.1 3.3
6.6 6.5 6.5 6.5 6.5 6.5 6.5 6.5 6.5 6.5 6.5 6.5 6.5 6.5 6.5 6.5 6.5 3.7 1.3 1.6 2.0 2.7 2.9 1.7 1.5 0.9 0.8 1.2 1.5 1.8 1.7 1.6 1.4 1.6 1.8 1.8 1.6 2.1 2.3 2.7 2.5 2.7 3.0 3.4
6.3 6.5 6.5 6.5 6.5 6.5 6.5 6.5 6.5 6.5 6.5 6.5 6.5 6.5 6.5 4.5 2.5 2.5 1.1 1.8 2.2 2.3 2.8 2.1 2.0 1.5 1.1 1.4 1.1 1.5 1.4 1.4 1.2 1.4 1.6 1.9 1.9 1.8 1.6 2.0 2.1 2.3 2.3 2.6
6.5 6.5 6.5 6.5 6.5 6.5 6.5 6.5 6.5 6.5 6.5 6.5 6.5 6.5 6.2 6.5 5.5 2.8 0.9 1.8 2.1 2.0 2.0 1.8 1.3 0.9 0.9 0.9 1.0 0.4 0.8 1.0 1.4 1.4 1.1 1.4 1.5 1.6 1.6 1.4 1.6 1.5 1.5 1.7
6.5 6.5 6.5 6.5 6.5 6.5 6.5 6.5 6.5 6.5 6.5 6.5 6.5 6.5 5.7 5.3 2.6 0.8 -1.1 -0.4 0.4 1.3 1.6 1.2 0.8 0.6 0.3 0.0 0.1 0.2 0.5 0.9 1.3 1.0 0.7 1.0 1.3 1.3 1.3 1.1 0.8 0.8 0.8 0.9
6.1 6.5 6.5 6.5 6.5 6.5 6.5 6.5 6.5 6.5 6.5 6.5 6.5 6.6 4.2 3.6 4.3 2.5 -0.8 -1.0 0.0 0.1 0.1 0.1 -0.1 -0.2 -0.5 -0.5 -0.2 -0.2 0.0 0.4 0.6 0.7 0.6 0.7 0.8 1.3 1.1 0.8 0.4 0.4 0.4 0.6
6.5 6.5 6.5 6.5 6.5 6.5 6.5 6.5 5.0 6.1 6.5 6.0 5.8 6.0 5.2 4.0 6.5 6.4 -2.5 -0.8 -0.8 -0.1 0.2 -0.2 -0.6 -0.8 -1.0 -0.9 -0.9 -0.5 -0.1 -0.0 0.2 0.5 0.5 0.3 0.8 1.3 1.6 0.8 0.8 0.2 0.5 1.2
6.5 6.5 6.5 6.5 6.5 6.5 6.5 5.8 4.1 6.5 6.5 4.1 2.5 2.3 4.0 6.2 2.9 -0.8 -4.8 -2.0 -0.8 -0.1 -0.2 -0.4 -0.6 -1.3 -1.5 -1.1 -1.1 -0.8 -0.5 -0.3 0.5 0.3 0.2 0.5 1.1 1.2 1.2 0.8 0.6 0.4 0.8 0.8
6.5 6.5 6.5 6.5 6.5 6.5 4.1 6.2 6.5 5.4 3.3 1.7 0.1 -1.7 0.2 -0.5 -1.6 -3.3 -3.8 -2.9 -1.2 -0.4 -0.2 -0.3 -1.1 -1.2 -1.3 -1.4 -1.2 -0.9 -1.2 -0.0 0.2 -0.0 0.2 0.7 0.7 1.4 1.9 1.0 0.8 0.7 0.4 0.6
6.5 6.5 6.5 6.5 6.5 5.3 2.2 4.1 0.1 -0.0 2.0 1.2 -1.0 -3.3 -2.6 -2.3 -2.2 -3.6 -3.7 -2.7 -1.7 -1.0 -0.7 -0.8 -0.8 -1.0 -0.9 -1.3 -1.5 -1.1 -1.0 -0.6 0.1 0.2 0.4 0.9 1.0 1.1 1.1 1.0 1.1 0.9 0.5 0.4
6.5 5.0 6.5 6.5 6.5 5.9 1.8 0.8 -1.3 -0.8 0.1 0.7 -1.0 -3.8 -4.1 -3.8 -3.6 -3.6 -3.3 -2.8 -1.4 -1.4 -1.3 -1.1 -0.7 -0.2 -0.8 -1.2 -1.0 -1.0 -0.7 -0.5 0.1 0.2 0.5 0.7 1.0 1.6 0.8 0.7 0.9 0.7 0.5 0.4
6.0 5.9 6.5 6.5 5.8 3.4 0.6 -1.1 -0.3 -1.9 -1.1 0.1 -2.0 -3.6 -3.8 -3.8 -4.0 -3.3 -3.2 -2.8 -1.8 -1.3 -1.5 -1.3 -0.8 -0.5 -0.2 -0.6 -0.8 -0.5 -0.6 -0.5 -0.1 0.3 0.4 0.5 0.6 0.5 0.4 0.5 0.5 0.9 0.6 0.6
4.7 6.5 6.5 6.5 4.0 4.6 2.9 1.5 -1.7 -2.2 -2.8 -2.5 -2.2 -3.5 -4.4 -3.5 -3.8 -4.0 -3.3 -3.0 -2.6 -1.9 -1.8 -1.5 -1.6 -0.7 -0.0 0.1 0.1 -0.1 -0.3 -0.3 -0.2 0.1 0.6 0.3 0.5 -0.0 -0.1 -0.2 0.3 2.6 3.8 4.8
Wind_Speed
3 5 1 4 4 2 1 1 3 2 4 5 7 5 8 7 4 6 5 5 3 3 2 1 2 3 5 4 6 5 5 6 3 2 3 3 4 4 4 12 16 17 16 17
5 1 2 2 1 1 3 2 3 0 3 5 2 6 4 7 5 6 7 6 5 2 3 1 2 4 3 4 4 6 5 5 4 2 2 2 3 3 4 11 15 18 16 16
4 1 2 2 2 2 1 2 1 3 3 1 4 3 1 2 2 4 4 5 3 5 5 2 3 4 4 5 5 5 6 6 4 5 3 4 4 4 3 6 5 12 15 16
3 0 1 1 0 2 2 1 1 1 3 2 2 5 2 3 5 5 6 5 5 4 3 2 2 3 4 4 5 5 6 6 5 7 3 4 2 2 3 3 5 9 15 15
1 1 1 1 1 2 1 0 1 1 2 3 1 2 3 1 6 8 8 7 6 6 5 5 3 3 3 4 5 5 5 6 5 4 2 3 4 3 3 4 7 7 11 14
2 1 2 1 1 2 3 3 5 4 2 2 1 3 4 5 6 4 4 6 7 6 6 4 2 3 4 4 5 5 6 5 6 5 4 5 5 6 5 6 6 6 5 6
1 0 1 2 1 1 3 4 3 3 4 4 2 2 8 5 5 6 9 8 8 6 5 4 1 2 3 5 5 4 5 5 6 5 5 6 6 5 5 6 4 6 5 4
3 3 1 2 1 1 1 3 4 3 2 5 2 5 4 3 5 3 6 7 7 6 4 4 3 1 2 4 4 4 5 5 6 5 6 5 6 3 4 4 4 4 3 4
4 2 0 3 2 1 1 2 2 5 2 2 3 6 1 2 4 5 6 6 7 6 6 5 4 3 1 2 3 3 5 5 6 6 5 6 6 6 5 6 4 4 5 4
4 2 1 0 2 3 1 4 2 3 0 4 5 6 5 6 10 8 8 9 7 6 6 4 4 2 1 1 2 3 3 3 4 6 4 5 6 6 6 5 6 6 6 7
3 3 1 2 3 5 1 1 5 4 3 4 2 7 6 8 9 12 10 9 8 8 7 6 5 2 1 1 2 3 4 5 6 5 5 5 6 6 6 5 6 6 6 6
2 4 3 5 1 1 1 2 4 4 3 1 4 6 0 5 6 8 9 8 7 6 7 7 6 4 2 1 2 3 3 4 5 4 4 5 5 5 6 6 6 7 6 7
4 0 2 1 1 2 3 4 4 5 3 6 5 6 1 1 4 6 8 8 8 7 7 6 5 4 4 3 2 2 3 3 4 4 4 5 6 6 6 6 6 5 6 6
2 2 6 6 5 5 4 5 5 5 3 4 7 8 5 7 9 8 7 8 8 8 8 7 6 6 5 4 3 2 3 3 4 4 4 5 6 6 6 6 6 6 5 6
4 4 4 5 6 4 6 5 9 9 6 7 3 8 5 8 13 13 10 7 8 8 9 9 7 6 6 5 3 2 2 3 3 4 4 5 5 5 6 6 6 6 6 6
1 2 2 4 1 6 6 9 11 10 4 10 6 18 7 0 5 8 10 11 10 10 10 10 7 7 7 6 5 3 2 2 2 3 5 5 5 5 5 6 6 6 6 6
5 5 3 5 4 5 8 9 15 7 6 8 8 11 5 4 7 9 10 14 14 11 11 11 10 8 6 6 6 5 3 2 2 3 4 4 4 5 5 5 5 6 6 5
6 5 3 3 3 2 6 3 6 13 5 14 6 6 7 4 4 5 7 13 13 12 11 10 8 7 7 5 5 3 3 3 2 3 4 4 4 4 4 5 5 5 4 5
2 4 2 3 3 8 2 4 8 8 8 20 19 9 7 3 3 6 9 10 14 13 9 9 8 6 6 6 5 5 5 4 4 4 4 4 3 3 4 5 5 3 3 4
5 6 4 3 4 5 5 3 4 3 6 6 16 10 10 7 2 5 11 13 9 9 9 8 8 6 7 6 6 5 5 4 5 5 5 5 4 3 1 2 3 3 2 3
3 2 5 2 3 9 6 5 5 3 7 5 9 9 11 7 6 1 8 8 9 9 10 8 8 9 8 7 6 6 5 6 5 5 5 5 4 4 3 2 2 2 3 4
8 7 4 3 2 9 7 5 8 5 1 4 6 8 13 4 6 5 7 10 12 11 9 10 9 7 6 7 6 6 6 5 4 5 5 5 4 3 1 2 3 3 3 4
3 7 6 10 7 3 9 5 6 3 3 4 5 7 8 9 7 8 7 9 12 11 10 8 8 7 6 7 7 6 5 5 4 4 5 4 5 4 3 2 3 2 3 3
5 4 3 2 5 12 9 10 7 7 6 4 4 7 11 9 9 9 9 9 9 10 9 8 7 7 7 7 6 6 5 5 4 4 4 4 3 5 4 3 2 2 3 3
3 6 5 6 9 7 11 13 13 11 7 6 4 8 12 9 10 10 11 11 10 10 9 9 9 8 8 7 7 6 6 5 5 4 4 3 3 3 4 4 4 3 4 4
5 7 5 6 7 2 7 3 4 10 14 12 9 6 6 9 12 10 10 11 11 11 9 9 8 7 7 7 7 6 6 6 5 5 4 3 3 3 3 3 4 6 7 9
Wind_Direction
14 67 236 202 191 221 146 214 261 206 175 151 206 250 221 203 180 154 174 190 183 156 157 62 42 358 358 10 4 344 339 337 345 332 318 325 312 323 321 332 326 322 322 325
27 208 185 175 83 253 217 245 269 306 136 172 196 251 276 179 208 171 182 193 201 174 190 221 353 347 344 318 337 340 342 343 339 343 313 290 298 292 290 318 327 329 325 321
156 168 136 144 48 44 63 213 214 242 19 227 330 295 333 192 107 107 144 191 194 200 198 198 327 329 329 342 332 327 332 336 346 354 339 334 327 317 323 337 321 325 324 325
108 31 128 137 204 122 290 188 115 150 65 274 48 286 270 227 203 189 185 204 201 207 200 206 269 324 325 323 324 336 342 343 5 360 12 4 318 312 284 291 303 317 327 331
230 102 68 163 205 146 211 200 95 84 118 46 307 72 262 143 245 225 218 217 213 209 201 212 269 324 326 347 330 326 346 356 1 359 328 359 341 293 293 308 318 331 334 333
111 103 80 119 95 112 128 91 47 51 87 7 224 129 257 196 212 193 199 208 204 204 203 215 259 6 341 341 349 346 357 349 356 353 332 348 342 328 334 334 340 331 324 326
34 149 58 78 107 71 84 66 340 349 3 231 145 76 249 223 214 199 183 198 205 196 190 204 238 357 339 340 344 344 4 349 349 355 341 343 334 325 330 328 317 325 334 331
147 314 129 22 83 218 88 135 144 279 293 285 314 243 261 212 169 144 159 170 189 194 193 203 174 144 320 338 349 356 356 352 350 344 335 339 338 333 320 317 324 317 314 314
140 259 56 65 68 87 120 37 177 103 11 5 257 288 287 138 201 180 171 167 202 202 193 193 158 172 321 334 343 346 351 346 350 336 324 338 337 347 333 332 336 316 322 333
189 88 349 54 110 38 56 161 55 21 93 291 291 283 247 232 228 216 203 203 213 203 191 182 174 206 250 280 321 354 352 339 329 340 338 327 325 338 334 338 341 339 324 334
136 108 311 28 195 180 63 33 54 114 119 170 306 274 209 209 199 203 207 198 200 194 190 190 194 219 271 313 341 334 355 355 353 346 338 337 331 340 335 337 331 330 328 334
200 136 188 215 135 118 189 200 146 117 235 80 144 274 181 226 215 186 194 195 197 183 188 187 189 201 205 286 337 327 336 351 344 330 334 339 339 344 343 333 330 333 329 334
201 262 16 309 19 11 219 195 116 108 92 200 140 262 47 31 185 198 184 187 190 179 178 186 193 209 223 252 285 320 343 331 326 334 343 345 345 346 336 329 329 331 328 322
56 159 180 196 201 132 192 189 172 138 126 184 228 284 238 224 216 208 208 183 187 179 185 195 202 214 212 222 234 296 338 336 324 331 345 348 337 327 317 321 337 327 325 324
121 235 191 252 229 191 214 186 179 194 187 185 247 220 237 212 210 207 197 175 182 188 192 203 198 210 210 217 220 251 298 317 312 329 342 335 319 331 328 339 328 331 341 327
59 240 207 284 351 206 255 223 199 214 223 266 281 281 215 201 121 159 186 180 191 197 196 204 193 195 206 202 199 207 267 294 302 328 327 331 331 328 326 332 331 337 344 349
150 143 110 266 340 320 290 223 190 188 205 175 200 231 163 196 206 208 191 190 193 197 194 196 193 191 198 197 195 203 225 274 303 327 315 331 322 324 326 328 345 344 347 350
141 118 107 237 347 288 243 161 181 206 214 213 256 204 197 200 208 208 194 188 195 191 191 192 189 182 190 192 198 201 218 217 244 284 300 317 328 318 338 346 351 346 356 352
92 120 93 140 207 293 233 199 162 172 270 206 220 198 184 105 63 281 200 191 195 189 186 189 177 172 174 186 194 198 208 216 234 265 293 298 299 314 345 355 345 340 359 346
72 73 122 109 155 240 245 186 190 192 295 201 195 174 156 138 176 252 188 182 178 177 171 170 168 160 169 191 183 196 216 207 235 266 283 286 274 262 331 319 338 314 334 321
106 26 173 180 226 285 234 158 145 113 236 154 173 157 155 186 198 190 139 151 165 168 166 158 162 174 183 175 175 202 215 226 239 276 289 287 282 267 232 277 285 312 346 342
167 151 191 96 94 270 148 85 171 224 283 161 162 175 187 153 146 146 152 150 156 161 161 168 168 181 185 174 172 202 216 228 243 275 285 282 285 285 278 264 290 288 317 332
233 188 181 186 212 249 216 207 213 172 202 209 177 183 168 158 185 168 167 165 165 167 170 168 175 177 186 188 182 194 224 203 222 263 287 288 311 295 296 293 298 294 302 304
236 167 216 103 251 235 235 251 246 209 212 190 199 168 168 177 169 176 162 165 172 170 174 166 167 186 193 191 198 204 202 201 210 233 267 291 303 298 313 301 269 275 280 289
191 135 192 262 283 276 249 229 235 215 208 205 168 178 190 158 180 173 175 176 179 180 172 170 181 188 200 187 196 203 203 196 213 227 240 250 260 284 298 292 262 269 266 239
184 192 180 224 231 213 263 306 207 195 212 199 172 177 185 177 174 168 181 181 174 178 177 179 179 180 188 187 200 198 200 197 203 221 232 234 234 250 259 284 305 289 278 308